KC7FQC Weather Reports


Display with metric or nautical units.
time (UTC)temp
F
wind
direction
speed
MPH
gust
MPH
rain 1hr
in
rain 24hr
in
rain mn
in
humidity
%
barometer
mb
20190326222931 89 228 1.0 7.0 0.00 0.00 0.00 15 1011.4
20190326215916 90 227 2.0 6.0 0.00 0.00 0.00 16 1012.0
20190326212916 90 227 2.0 8.0 0.00 0.00 0.00 15 1012.4
20190326205916 90 220 5.0 7.0 0.00 0.00 0.00 16 1012.8
20190326202916 89 215 1.0 6.0 0.00 0.00 0.00 16 1013.2
20190326195916 89 223 0.0 5.0 0.00 0.00 0.00 18 1013.7
20190326192916 88 223 1.0 6.0 0.00 0.00 0.00 19 1013.9
20190326185931 84 223 2.0 7.0 0.00 0.00 0.00 21 1014.4
20190326182915 82 223 4.0 6.0 0.00 0.00 0.00 24 1014.6
20190326175916 80 223 1.0 4.0 0.00 0.00 0.00 26 1015.0
20190326172916 79 223 2.0 5.0 0.00 0.00 0.00 27 1015.1
20190326165916 76 223 4.0 5.0 0.00 0.00 0.00 29 1015.2
20190326162916 72 223 2.0 5.0 0.00 0.00 0.00 32 1015.3
20190326155916 69 222 0.0 6.0 0.00 0.00 0.00 35 1014.9
20190326152915 65 222 0.0 1.0 0.00 0.00 0.00 40 1014.8
20190326145915 63 222 0.0 2.0 0.00 0.00 0.00 46 1014.8
20190326142916 58 223 0.0 2.0 0.00 0.00 0.00 51 1014.1
20190326135916 56 223 0.0 0.0 0.00 0.00 0.00 50 1014.0
20190326132915 56 227 0.0 2.0 0.00 0.00 0.00 49 1013.7
20190326125916 56 227 0.0 2.0 0.00 0.00 0.00 51 1013.6
20190326122915 55 227 2.0 2.0 0.00 0.00 0.00 52 1013.7
20190326115916 56 227 0.0 0.0 0.00 0.00 0.00 53 1013.9
20190326112915 57 227 0.0 0.0 0.00 0.00 0.00 52 1013.7
20190326105915 57 227 0.0 2.0 0.00 0.00 0.00 48 1013.7
20190326102915 58 227 0.0 0.0 0.00 0.00 0.00 48 1013.8
20190326095915 59 227 0.0 0.0 0.00 0.00 0.00 45 1014.3
20190326092915 61 227 0.0 2.0 0.00 0.00 0.00 43 1014.6
20190326085915 61 227 0.0 3.0 0.00 0.00 0.00 42 1014.7
20190326082915 61 227 0.0 2.0 0.00 0.00 0.00 42 1015.1
20190326075915 62 227 0.0 2.0 0.00 0.00 0.00 42 1015.1
20190326072915 63 227 0.0 1.0 0.00 0.00 0.00 40 1015.0
20190326065915 64 227 0.0 2.0 0.00 0.00 0.00 37 1015.3
20190326062915 65 227 0.0 2.0 0.00 0.00 0.00 37 1015.3
20190326055915 65 227 0.0 0.0 0.00 0.00 0.00 37 1015.5
20190326052915 66 227 0.0 1.0 0.00 0.00 0.00 37 1015.4
20190326045915 67 227 0.0 0.0 0.00 0.00 0.00 32 1015.4
20190326042915 70 227 0.0 1.0 0.00 0.00 0.00 30 1015.5
20190326035915 71 227 0.0 4.0 0.00 0.00 0.00 28 1015.4
20190326032916 74 227 0.0 0.0 0.00 0.00 0.00 25 1015.2
20190326025915 77 227 0.0 2.0 0.00 0.00 0.00 22 1015.0
20190326015915 81 227 1.0 7.0 0.00 0.00 0.00 18 1014.5
20190326012915 84 227 1.0 7.0 0.00 0.00 0.00 17 1014.2
20190326005915 86 226 2.0 6.0 0.00 0.00 0.00 16 1014.5
20190326002915 88 227 4.0 7.0 0.00 0.00 0.00 15 1014.8
20190325235915 88 223 3.0 10.0 0.00 0.00 0.00 14 1014.9
20190325232914 88 192 4.0 10.0 0.00 0.00 0.00 14 1015.0
20190325225914 87 144 2.0 9.0 0.00 0.00 0.00 14 1015.4